This is the latest recevied weather packets stored in our database for station/object IK1PCD-11. If no packets are shown the sender has not sent any weather packets the latest 10 day(s).
| Time | Temp. | Humidity | Pressure | Rain* | Wind** | Luminosity | Snow |
|---|---|---|---|---|---|---|---|
| 1787406043 | 21.11° C | 100% | 1017.7 hPa | - | - | - | - |
| 1787405142 | 21.67° C | 100% | 1017.6 hPa | - | - | - | - |
| 1787404241 | 21.11° C | 100% | 1017.5 hPa | - | - | - | - |
| 1787403341 | 21.11° C | 100% | 1017.7 hPa | - | - | - | - |
| 1787402441 | 21.67° C | 100% | 1017.5 hPa | - | - | - | - |
| 1787401540 | 22.78° C | 100% | 1017.7 hPa | - | - | - | - |
| 1787400640 | 21.67° C | 100% | 1017.7 hPa | - | - | - | - |
| 1787399740 | 20.56° C | 100% | 1017.8 hPa | - | - | - | - |
| 1787398840 | 20.56° C | 100% | 1017.8 hPa | - | - | - | - |
| 1787397940 | 21.11° C | 100% | 1017.5 hPa | - | - | - | - |
| 1787397040 | 20° C | 100% | 1017.6 hPa | - | - | - | - |
| 1787396140 | 18.89° C | 100% | 1017.7 hPa | - | - | - | - |
| 1787392539 | 17.78° C | 100% | 1018.5 hPa | - | - | - | - |
| 1787391651 | 17.22° C | 100% | 1018.4 hPa | - | - | - | - |
| 1787390751 | 17.22° C | 100% | 1018.3 hPa | - | - | - | - |
| 1787389851 | 16.67° C | 100% | 1018.2 hPa | - | - | - | - |
| 1787388951 | 16.11° C | 100% | 1017.9 hPa | - | - | - | - |
| 1787388051 | 15.56° C | 100% | 1017.7 hPa | - | - | - | - |
| 1787387151 | 15° C | 100% | 1017.6 hPa | - | - | - | - |
| 1787386251 | 14.44° C | 100% | 1017.5 hPa | - | - | - | - |
| 1787385351 | 13.89° C | 100% | 1017.4 hPa | - | - | - | - |
| 1787384451 | 13.89° C | 100% | 1017.3 hPa | - | - | - | - |
| 1787383550 | 13.33° C | 100% | 1017.1 hPa | - | - | - | - |
| 1787382650 | 12.78° C | 100% | 1017 hPa | - | - | - | - |
| 1787381750 | 12.22° C | 100% | 1016.9 hPa | - | - | - | - |
* Rain since midnight (hover to see other rain measurements)
** Current wind speed in m/s (hover to see current wind gust speed)